This demonstration page uses our WeatherBlox Daily Observations layout. Learn more.

Left ArrowRight Arrow

Hourly Observations for May 15, 2021

Temp ( °F °C ) Dew Point ( °F °C ) Humidity (%) Winds ( mph kmh ) Pressure ( in mb ) Visibility ( mi km ) Precip ( " mm )
12:15 am 00:15 Partly Cloudy 57 14 54 12.3 90 90 SE 7 11 30.00 1016 10 16 N/A
12:35 am 00:35 Clear 57 13.7 54 12.3 91 91 ESE 7 11 29.99 1016 10 16 N/A
12:55 am 00:55 Clear 56 13.5 54 12.2 92 92 N N/A 30.01 1016 10 16 N/A
1:15 am 01:15 Mostly Cloudy 56 13.2 54 12 93 93 N N/A 30.01 1016 10 16 N/A
1:35 am 01:35 Partly Cloudy 55 12.8 53 11.8 94 94 NNE 3 6 30.02 1017 10 16 N/A
1:55 am 01:55 Partly Cloudy with Mist and Fog 54 12.1 52 11.3 95 95 NE 5 7 30.02 1017 5 8 N/A
2:15 am 02:15 Partly Cloudy 54 12.2 53 11.5 96 96 NE 7 11 30.02 1017 7 11 N/A
2:35 am 02:35 Partly Cloudy with Mist and Fog 54 12 53 11.4 96 96 NE 5 7 30.02 1016 5 8 N/A
2:55 am 02:55 Clear with Mist and Fog 54 12.3 53 11.7 96 96 N N/A 30.02 1017 5 8 N/A
3:15 am 03:15 Clear with Mist and Fog 53 11.9 52 11.2 96 96 N N/A 30.03 1017 4 6 N/A
3:35 am 03:35 Partly Cloudy with Mist and Fog 53 11.8 52 11.3 97 97 N N/A 30.03 1017 4 6 N/A
3:55 am 03:55 Clear with Mist and Fog 53 11.6 52 11.1 97 97 N N/A 30.03 1017 3 5 N/A
4:15 am 04:15 Mostly Cloudy with Mist and Fog 54 12 53 11.5 97 97 N N/A 30.03 1017 5 8 N/A
4:35 am 04:35 Mostly Cloudy with Mist and Fog 52 11.3 51 10.8 97 97 N N/A 30.03 1017 4 6 N/A
4:55 am 04:55 Cloudy with Mist and Fog 53 11.7 52 11.2 97 97 NE 3 6 30.03 1017 3 5 N/A
5:15 am 05:15 Cloudy with Mist and Fog 54 12 53 11.5 97 97 N N/A 30.03 1017 3 4 N/A
5:35 am 05:35 Cloudy with Mist and Fog 53 11.8 52 11.3 97 97 N N/A 30.03 1017 2 3 N/A
5:55 am 05:55 Cloudy with Mist and Fog 54 12.1 53 11.7 97 97 N N/A 30.02 1017 3 5 N/A
6:15 am 06:15 Cloudy with Mist and Fog 54 12.2 53 11.8 97 97 N N/A 30.02 1017 3 5 N/A
6:35 am 06:35 Cloudy with Mist and Fog 54 12.4 54 12 97 97 N N/A 30.03 1017 3 5 N/A
6:55 am 06:55 Cloudy with Mist and Fog 55 12.5 54 12.1 97 97 N N/A 30.03 1017 2 3 N/A
7:15 am 07:15 Cloudy with Mist and Fog 55 12.8 55 12.5 98 98 N N/A 30.03 1017 3 4 N/A
7:35 am 07:35 Cloudy with Mist and Fog 56 13.3 55 13 98 98 N 3 6 30.02 1017 3 4 N/A
7:55 am 07:55 Cloudy with Mist and Fog 57 13.9 56 13.5 97 97 N 5 7 30.02 1017 4 6 N/A
8:15 am 08:15 Mostly Cloudy with Mist and Fog 58 14.2 56 13.6 96 96 NNE 6 9 30.03 1017 4 6 N/A
8:35 am 08:35 Mostly Cloudy with Mist and Fog 58 14.3 56 13.6 96 96 N 5 7 30.03 1017 5 8 N/A
8:55 am 08:55 Cloudy 60 15.4 58 14.6 95 95 N N/A 30.03 1017 7 11 N/A
9:15 am 09:15 Cloudy 61 16 58 14.6 91 91 N 5 7 30.02 1017 7 11 N/A
9:35 am 09:35 Mostly Cloudy 62 16.6 58 14.7 89 89 N N/A 30.02 1016 10 16 N/A
9:55 am 09:55 Mostly Cloudy 63 17.2 58 14.7 85 85 N N/A 30.01 1016 10 16 N/A
10:15 am 10:15 Mostly Cloudy 65 18.2 59 14.9 81 81 NW 3 6 30.00 1016 10 16 N/A
10:35 am 10:35 Partly Cloudy 66 18.8 58 14.3 75 75 N N/A 30.00 1016 10 16 N/A
10:55 am 10:55 Partly Cloudy 68 20 57 14.1 69 69 N N/A 29.99 1015 10 16 N/A
11:15 am 11:15 Mostly Cloudy 68 20 56 13.1 65 65 N N/A 29.99 1015 10 16 N/A
11:35 am 11:35 Mostly Cloudy 69 20.7 55 12.8 61 61 N N/A 29.98 1015 10 16 N/A
11:55 am 11:55 Partly Cloudy 68 19.8 54 12 61 61 SW 3 6 29.99 1016 10 16 N/A
12:15 pm 12:15 Partly Cloudy 70 20.9 55 12.9 60 60 S 3 6 29.97 1015 10 16 N/A
12:35 pm 12:35 Sunny 69 20.7 55 12.6 60 60 N N/A 29.97 1015 10 16 N/A
12:55 pm 12:55 Sunny 70 21.3 54 12.4 57 57 N N/A 29.96 1014 10 16 N/A
1:15 pm 13:15 Partly Cloudy 70 21.3 55 12.7 58 58 N N/A 29.96 1014 10 16 N/A
1:35 pm 13:35 Partly Cloudy 71 21.9 55 12.9 57 57 SSE 3 6 29.94 1014 10 16 N/A
1:55 pm 13:55 Mostly Cloudy 71 21.5 55 12.7 57 57 SE 6 9 29.94 1014 10 16 N/A
2:15 pm 14:15 Mostly Cloudy 73 22.8 56 13.1 54 54 SSE 6 9 29.92 1013 10 16 N/A
2:35 pm 14:35 Mostly Cloudy 72 22.3 55 12.5 54 54 ESE 5 7 29.93 1013 10 16 N/A
2:55 pm 14:55 Cloudy 72 22 55 12.7 56 56 SE 5 7 29.93 1014 10 16 N/A
3:15 pm 15:15 Cloudy 72 22.2 55 12.6 55 55 N N/A 29.92 1013 10 16 N/A
3:35 pm 15:35 Cloudy 72 22 55 12.6 55 55 E 3 6 29.92 1013 10 16 N/A
3:55 pm 15:55 Cloudy 73 22.8 56 13.4 56 56 SSE 7 11 29.90 1013 10 16 N/A
4:15 pm 16:15 Mostly Cloudy 74 23.4 56 13.4 54 54 SE 8 13 29.89 1012 10 16 N/A
4:35 pm 16:35 Mostly Cloudy 74 23.5 56 13.3 53 53 SE 12 19 29.89 1012 10 16 N/A
4:55 pm 16:55 Partly Cloudy 73 23 56 13.2 54 54 SE 10 17 29.89 1012 10 16 N/A
5:15 pm 17:15 Mostly Cloudy 73 22.7 56 13.6 57 57 ESE 8 13 29.89 1012 10 16 N/A
5:35 pm 17:35 Partly Cloudy 72 22.3 56 13.2 56 56 ESE 8 13 29.89 1012 10 16 N/A
5:55 pm 17:55 Mostly Cloudy 73 22.9 56 13.5 56 56 SSE 8 13 29.88 1012 10 16 N/A
6:15 pm 18:15 Cloudy 73 22.5 56 13.4 57 57 SE 9 15 29.89 1012 10 16 N/A
6:35 pm 18:35 Mostly Cloudy 72 22.3 56 13.4 57 57 SSE 7 11 29.89 1012 10 16 N/A
6:55 pm 18:55 Cloudy 72 22.2 56 13.5 58 58 SSE 8 13 29.89 1012 10 16 N/A
7:15 pm 19:15 Cloudy 72 22 57 13.8 60 60 SSE 9 15 29.89 1012 10 16 N/A
7:35 pm 19:35 Cloudy 71 21.5 58 14.2 63 63 SE 8 13 29.88 1012 10 16 N/A
7:55 pm 19:55 Cloudy 70 21.1 58 14.5 66 66 ESE 7 11 29.89 1012 10 16 N/A
8:15 pm 20:15 Cloudy 69 20.6 58 14.5 68 68 SE 9 15 29.89 1012 10 16 N/A
8:35 pm 20:35 Cloudy 68 20.2 58 14.5 70 70 SE 6 9 29.90 1012 10 16 N/A
8:55 pm 20:55 Cloudy 68 20 58 14.6 71 71 SE 8 13 29.90 1012 10 16 N/A
9:15 pm 21:15 Cloudy 68 19.8 58 14.5 72 72 SE 8 13 29.90 1012 10 16 N/A
9:35 pm 21:35 Cloudy 66 18.9 58 14.7 77 77 ESE 8 13 29.90 1012 10 16 N/A
9:55 pm 21:55 Cloudy 65 18.5 59 14.8 79 79 ESE 8 13 29.90 1013 10 16 N/A
10:15 pm 22:15 Cloudy 66 18.7 58 14.7 78 78 SE 8 13 29.92 1013 10 16 N/A
10:35 pm 22:35 Cloudy 65 18.5 58 14.7 79 79 SE 9 15 29.92 1013 10 16 N/A
10:55 pm 22:55 Mostly Cloudy 65 18.1 58 14.7 81 81 SE 12 19 29.92 1013 10 16 N/A
11:15 pm 23:15 Partly Cloudy 65 18.1 58 14.5 80 80 SE 9 15 29.93 1014 10 16 N/A
11:35 pm 23:35 Mostly Cloudy 64 17.8 58 14.7 82 82 ESE 7 11 29.95 1014 10 16 N/A
11:55 pm 23:55 Cloudy 64 17.9 58 14.7 82 82 ESE 12 19 29.93 1014 10 16 N/A

Powered by AerisWeather